Theta_e
348 348 349 350 351 355 354 353 353 352 352 353 353 353 352 351 350 351 349 347 348 350 349 349 346 349 344 348 345 344 345 346 345 345 346 345 344 346 346 345 344 344 344 345 345 342 342 342 343 344 345 346 349 350 343 342 341 338 338 337 339 335
348 349 351 349 351 351 352 352 354 356 354 352 351 352 353 351 352 350 348 348 344 342 345 347 347 346 347 348 347 345 345 345 345 345 345 346 345 344 345 345 345 344 345 344 344 344 340 341 342 343 344 345 347 341 344 344 342 338 337 338 338 336
347 350 352 350 350 352 353 353 350 351 352 345 348 351 352 352 348 351 351 348 351 346 347 348 348 347 346 346 348 344 345 345 344 344 344 344 345 344 344 344 344 345 346 345 341 339 339 339 339 339 342 347 343 342 343 343 342 341 339 338 338 337
349 349 350 348 350 351 353 353 349 345 344 348 347 345 352 354 352 352 348 346 348 352 347 348 347 348 346 347 347 345 345 345 344 345 344 343 343 343 344 344 345 347 346 342 340 338 337 337 340 342 342 341 342 342 342 342 340 341 341 338 338 338
351 351 350 348 349 350 349 350 346 347 345 346 346 344 346 354 353 350 346 349 347 348 349 350 349 348 349 349 349 347 349 348 348 344 345 343 341 341 343 339 342 341 339 338 337 338 336 337 340 340 341 340 342 343 343 343 341 340 342 343 341 339
353 353 352 350 350 350 353 346 345 344 346 350 347 350 351 351 351 346 344 348 349 347 348 347 349 350 349 350 349 347 347 346 346 341 340 340 338 340 339 338 338 337 337 339 338 338 337 338 338 337 339 340 340 343 342 342 341 343 344 343 342 340
351 352 353 353 351 351 349 352 353 353 349 342 345 346 350 350 348 346 347 348 345 345 345 345 346 348 348 349 347 348 347 348 345 341 340 337 338 340 339 339 337 338 337 337 336 336 335 335 338 336 339 338 339 340 342 341 340 341 343 342 342 340
350 352 352 353 352 349 351 352 352 350 350 350 349 348 348 350 350 346 348 347 347 344 344 343 345 347 348 348 346 347 348 347 342 341 339 338 336 335 338 337 339 337 335 334 333 335 335 335 336 338 337 338 338 341 341 340 343 343 343 345 343 341
351 351 352 353 352 350 349 351 351 349 349 349 347 348 349 347 345 345 345 345 346 346 344 344 346 347 348 347 347 348 349 347 342 339 340 337 337 338 338 337 337 336 336 335 334 335 334 335 339 339 338 337 338 338 340 342 344 343 343 344 345 342
350 350 352 353 352 351 350 349 350 351 349 348 346 350 351 347 347 342 344 346 348 347 346 344 346 347 346 347 349 350 348 348 341 342 340 339 337 336 335 334 336 335 332 334 334 335 335 336 335 337 337 339 340 340 341 341 342 341 342 344 346 345
350 350 353 352 351 351 350 350 350 351 351 349 349 351 350 349 345 341 340 344 348 345 346 347 347 347 346 346 347 348 348 347 340 341 341 340 340 338 336 334 334 333 335 333 333 334 334 336 337 336 338 338 339 343 342 343 342 341 339 342 344 347
349 350 349 352 351 351 350 350 350 349 350 349 350 349 348 348 347 342 341 342 341 341 343 349 348 347 347 345 345 346 347 347 339 341 340 339 338 338 337 336 336 338 338 338 336 337 337 336 337 337 338 337 339 341 340 342 341 340 341 343 342 345
349 349 349 349 350 350 351 350 349 349 350 350 350 350 349 348 347 344 341 340 339 341 346 348 350 349 348 346 346 345 346 347 341 342 342 340 338 341 338 339 337 335 335 335 337 337 334 338 340 340 340 337 341 339 341 339 342 343 342 344 344 343
347 348 349 349 348 348 350 349 350 349 348 349 350 349 349 348 347 347 344 343 342 342 346 348 349 349 348 345 345 345 346 347 345 343 343 342 339 335 335 333 332 333 333 333 332 334 334 339 339 339 341 340 342 344 342 341 341 342 343 345 345 346
347 348 348 348 348 347 350 350 349 349 348 349 349 349 349 349 347 348 347 342 340 345 345 347 349 348 347 345 344 345 347 348 347 344 342 341 338 339 337 336 334 332 335 333 333 336 338 341 340 338 342 345 344 344 345 342 343 342 341 345 346 346
347 347 348 348 349 347 348 349 349 347 349 350 349 349 349 349 349 348 348 347 345 346 346 346 348 348 346 345 344 345 347 348 347 345 343 343 344 341 339 338 340 339 335 333 336 339 341 341 341 342 344 344 345 344 345 343 344 343 343 345 345 347
345 346 347 349 348 347 347 347 347 348 350 349 347 347 348 349 348 347 348 347 343 342 345 347 347 346 347 347 345 345 345 348 349 346 345 345 343 345 345 341 346 344 342 339 336 338 341 343 343 344 344 344 345 345 345 345 345 345 343 342 343 343
346 347 347 348 347 346 346 346 346 347 348 347 347 347 347 347 346 346 347 345 341 343 346 346 348 347 349 345 344 344 341 344 347 346 345 345 344 345 347 345 344 344 342 340 339 339 341 341 341 342 343 344 346 345 344 346 347 344 344 341 343 342
346 346 347 348 347 347 347 347 346 347 346 345 345 345 346 346 346 346 348 345 343 344 345 347 348 348 345 343 342 342 342 348 348 346 347 346 344 346 346 347 346 345 344 342 342 342 342 342 342 342 342 344 345 346 347 347 347 348 347 345 343 343
345 347 347 347 345 343 343 343 342 346 343 343 343 343 341 344 345 346 346 344 343 343 344 348 348 347 346 345 342 342 341 344 348 348 347 345 343 344 346 346 344 344 343 341 341 342 343 343 342 343 343 345 345 347 348 347 349 348 347 347 346 344
345 346 345 344 343 342 341 341 342 341 341 343 342 343 342 345 344 346 347 347 344 343 344 346 345 344 345 342 344 347 347 347 345 343 343 346 346 343 346 345 343 343 342 341 340 342 343 343 340 339 343 342 343 346 347 347 347 347 345 347 347 345
344 345 344 344 343 343 343 342 341 340 340 341 342 341 341 343 344 345 346 345 345 343 344 344 344 345 347 344 343 343 340 340 344 345 348 348 348 347 347 345 343 340 340 340 340 341 343 342 337 335 334 336 338 340 342 340 341 342 344 347 349 348
345 344 344 344 343 342 344 345 343 343 343 343 346 346 344 344 345 345 346 346 344 344 345 345 345 344 345 346 345 345 340 341 341 341 346 345 347 347 348 347 344 338 338 339 338 343 344 343 335 337 338 334 326 326 333 335 340 341 344 346 347 348
345 345 344 344 343 345 345 346 345 346 346 345 343 346 342 342 344 345 345 346 344 344 344 345 345 344 344 347 347 345 340 342 340 342 345 345 346 346 347 346 346 345 343 338 337 341 345 346 338 338 329 327 329 327 321 325 335 341 345 344 345 346
345 345 345 344 344 345 345 344 344 345 346 345 345 345 342 341 343 344 343 343 343 344 343 344 346 345 344 345 346 344 341 339 340 346 348 346 345 346 346 344 346 346 343 341 335 337 343 345 345 343 335 331 327 323 321 330 330 333 340 342 342 346
343 344 344 345 345 344 343 341 340 338 337 337 339 337 335 337 340 341 340 342 344 344 344 344 345 346 345 344 343 342 339 336 339 347 346 346 346 346 346 344 346 346 343 343 339 334 334 345 344 346 344 340 338 327 328 332 326 324 336 342 344 343
343 343 345 345 345 344 342 342 340 339 339 338 337 338 341 341 342 343 344 342 342 344 344 342 343 342 340 341 342 343 339 337 338 344 346 346 346 346 344 345 347 346 343 341 341 334 332 337 341 344 344 344 342 339 333 331 326 332 323 334 339 339
343 343 345 345 345 343 342 341 340 340 339 339 339 339 341 341 342 344 343 344 343 343 342 342 342 342 343 343 344 342 340 339 338 339 343 345 345 346 345 346 347 346 345 345 343 339 339 341 335 337 343 342 340 339 340 339 338 334 331 324 329 337
343 344 344 345 344 344 343 342 341 340 339 340 340 340 341 341 340 341 339 339 340 339 339 342 341 342 343 343 343 343 342 341 341 342 343 346 344 344 346 345 346 346 345 345 345 343 340 337 335 335 337 340 340 339 340 341 341 341 333 329 327 331
343 343 343 344 344 344 344 342 342 341 339 339 340 340 341 339 339 340 338 339 338 337 338 340 342 341 343 343 343 344 344 344 344 345 345 343 342 339 344 345 345 346 346 344 343 341 338 338 337 339 341 338 337 337 337 337 338 338 337 336 328 329
343 343 344 344 343 343 343 343 341 341 340 339 339 338 339 339 339 338 337 338 341 338 337 337 338 338 343 344 344 344 344 344 346 346 343 340 341 344 344 345 347 347 345 342 338 337 338 338 339 343 343 339 338 334 333 332 334 336 337 335 331 331
343 343 343 342 343 342 342 342 342 341 339 340 339 338 338 338 339 338 340 339 340 339 337 339 339 338 342 342 343 343 344 344 345 345 343 344 345 345 346 345 344 338 338 340 340 337 336 337 344 343 343 341 341 336 332 331 334 336 336 334 333 331
341 343 343 343 342 343 342 342 341 341 340 340 340 339 339 339 340 338 339 340 339 337 335 334 336 335 342 341 340 342 343 343 343 342 342 342 345 346 345 345 340 336 339 339 338 338 336 342 343 340 340 344 344 340 336 338 340 337 335 336 334 329
341 342 342 342 342 341 342 342 342 341 341 340 340 340 340 339 340 340 339 339 341 341 339 339 338 339 340 337 339 341 343 344 344 342 343 343 345 345 344 343 341 339 341 341 341 340 341 341 343 344 344 342 343 338 336 337 340 339 336 335 332 330
342 342 341 340 341 340 340 340 341 341 341 341 340 340 339 340 341 340 341 340 339 341 342 340 339 341 341 341 340 340 341 342 343 343 340 342 343 345 344 343 338 343 341 342 341 339 339 340 338 339 341 340 338 337 338 343 341 337 337 336 335 333
341 341 341 340 340 340 340 341 341 341 341 341 341 341 340 340 341 342 342 340 340 340 340 342 343 342 342 341 340 340 341 341 342 340 338 339 341 343 343 341 341 339 340 342 338 338 340 339 339 340 340 340 336 336 339 339 340 340 338 339 339 339
341 341 341 340 340 340 340 340 341 341 341 341 341 340 340 340 341 341 341 341 340 340 341 341 343 343 340 340 341 342 342 342 343 343 339 340 344 344 342 341 340 341 341 340 340 340 340 340 341 341 341 339 337 336 337 337 341 340 341 340 340 340
Wind_Speed
11 12 12 12 11 12 13 17 15 16 16 16 15 16 15 15 14 13 10 13 15 8 10 10 10 7 8 6 8 5 10 10 9 9 10 9 8 10 9 9 7 5 4 4 3 3 3 3 2 2 2 4 8 6 2 1 1 3 2 5 3 9
9 12 11 10 8 9 9 13 11 10 10 11 13 13 13 12 13 10 12 11 9 7 9 8 7 8 8 8 8 6 9 9 9 9 10 10 9 7 8 7 6 5 4 5 6 6 8 7 5 3 4 7 7 0 2 2 1 3 3 4 4 11
11 11 11 11 8 8 10 8 7 8 6 8 9 10 10 11 10 9 11 7 9 10 8 7 7 9 8 10 8 7 8 8 9 9 9 10 9 8 7 6 6 5 4 7 8 6 5 6 6 8 8 7 2 1 2 1 2 2 3 4 6 13
11 11 10 9 7 8 6 7 5 5 3 6 6 6 9 8 8 9 9 5 5 7 9 7 11 13 10 8 7 10 9 9 10 10 9 8 9 9 9 7 6 6 8 8 7 5 5 4 3 4 3 1 1 1 1 1 1 3 3 3 7 14
11 10 11 9 8 8 9 6 6 5 7 7 4 6 10 8 6 8 7 6 7 8 7 7 8 8 8 8 8 8 8 7 7 8 10 7 7 9 9 8 8 8 7 7 5 3 3 2 3 3 2 2 1 0 1 1 1 0 3 4 8 13
11 10 10 9 9 8 7 9 10 10 8 3 6 8 7 7 7 9 7 6 7 8 8 7 7 8 8 7 7 7 8 8 6 6 8 6 6 6 7 7 6 7 6 5 4 3 4 3 3 3 2 1 2 2 1 1 1 1 2 3 9 13
11 10 11 9 7 7 7 6 7 8 8 9 8 9 7 6 6 9 7 7 8 7 7 8 8 8 8 7 7 7 6 5 6 5 5 4 4 5 6 6 6 5 5 4 5 4 4 5 4 3 4 4 2 2 2 1 1 1 1 3 9 13
11 10 10 9 8 7 7 7 7 6 7 5 5 6 4 5 6 6 5 6 8 7 8 9 8 8 8 7 7 7 6 6 6 5 5 4 5 5 6 5 5 6 6 6 6 6 5 4 4 4 3 3 3 3 2 1 0 0 1 2 6 11
11 12 9 9 8 7 7 7 6 7 7 6 3 5 4 3 2 4 5 7 7 6 7 8 9 8 8 8 7 7 6 5 5 5 5 4 4 5 6 6 6 6 5 5 5 4 5 5 4 5 4 3 2 2 2 2 2 2 2 1 3 11
12 11 9 8 8 7 7 7 7 7 7 7 7 7 4 5 3 3 4 6 6 6 6 7 7 7 8 8 7 7 6 5 5 4 5 5 5 5 6 7 6 6 6 5 4 5 4 5 6 5 3 2 2 3 2 2 2 1 1 2 1 8
12 11 9 9 8 8 7 7 7 6 6 7 7 6 6 5 4 4 4 5 4 2 5 7 7 7 7 7 7 6 6 6 5 5 4 4 5 5 6 6 7 6 5 5 5 4 6 4 4 4 4 4 4 3 2 2 2 1 2 2 3 5
13 11 11 9 9 8 8 8 7 7 7 7 7 6 6 6 7 7 3 4 3 4 10 6 6 7 6 6 6 6 6 6 5 5 5 4 5 5 6 6 5 4 3 3 4 4 4 4 4 3 4 5 4 3 4 2 1 1 2 1 2 3
13 12 12 12 9 9 8 8 8 8 7 7 6 6 6 6 7 8 7 5 6 8 8 6 4 5 6 6 6 6 6 6 6 6 5 5 6 5 5 5 4 4 5 6 5 5 5 4 4 3 4 3 3 4 2 2 2 1 2 2 3 3
13 13 13 11 10 9 8 8 8 8 8 7 6 6 6 6 6 6 7 9 8 9 6 5 5 5 5 5 5 6 7 6 6 6 6 5 6 6 6 6 7 6 6 6 7 6 5 5 4 4 4 3 2 1 2 2 1 1 1 3 3 3
12 14 13 12 11 10 9 8 9 8 8 8 7 6 6 6 6 7 7 5 7 7 6 5 4 4 6 4 6 6 6 6 5 6 6 6 6 5 6 7 6 7 6 7 7 6 6 5 4 4 3 2 2 2 1 2 0 4 2 2 3 4
13 14 12 12 11 11 10 9 9 8 7 8 6 6 5 6 6 6 7 7 8 5 5 6 5 5 5 6 7 7 6 6 6 6 6 6 6 7 7 6 6 6 6 8 6 6 5 4 4 2 2 2 1 2 2 1 1 3 1 3 3 3
14 14 13 12 11 10 9 9 9 8 7 7 7 6 6 5 6 6 7 8 5 6 7 6 7 7 5 6 6 6 7 7 6 6 6 6 6 6 6 7 6 6 6 6 6 6 6 4 4 3 3 2 2 2 2 2 2 2 2 4 3 5
12 13 11 11 11 10 9 9 8 7 7 7 7 6 5 6 6 6 6 7 6 7 9 10 8 7 6 6 3 3 5 8 8 7 7 7 7 7 6 6 6 6 6 5 5 6 5 5 4 3 3 3 3 2 2 3 2 3 3 3 3 3
11 12 11 10 10 10 9 9 7 7 8 7 7 7 6 6 6 6 6 8 9 9 8 8 8 8 7 7 5 4 5 7 8 7 7 7 8 7 7 6 6 5 5 6 5 4 4 3 3 4 4 4 3 4 3 3 4 3 3 3 2 2
11 11 11 10 10 9 8 9 9 7 8 8 8 6 5 7 6 6 7 9 9 8 8 8 7 7 6 6 6 6 9 10 8 7 7 8 8 8 8 8 7 6 6 5 5 4 4 4 4 4 4 4 4 4 5 4 4 4 3 3 3 3
11 11 10 10 10 10 10 10 9 10 10 9 9 7 8 8 7 7 8 8 8 7 8 8 7 7 7 6 6 5 5 7 6 6 9 8 8 8 8 7 7 6 7 6 6 5 4 4 5 5 5 5 5 6 6 6 6 5 4 3 3 3
12 11 11 10 9 8 9 9 9 9 8 8 8 8 8 7 7 7 8 8 8 8 9 8 7 8 7 9 6 6 5 3 4 7 8 7 7 5 5 6 6 5 6 6 6 6 4 5 6 6 6 5 5 5 6 6 6 5 5 3 2 2
11 12 10 10 9 9 9 7 9 8 9 7 7 7 6 6 7 7 8 8 8 8 9 8 9 9 8 9 10 7 6 6 7 10 8 7 7 6 5 5 6 6 6 7 6 6 6 7 5 5 5 4 6 6 5 5 5 4 4 3 3 3
11 11 10 11 10 9 9 9 9 8 7 6 6 5 5 7 7 8 8 8 7 8 9 8 9 10 8 8 9 7 5 5 8 10 7 7 7 7 6 5 4 6 6 7 7 7 7 7 6 4 6 7 3 4 6 8 6 4 4 4 4 3
11 11 10 11 11 9 9 8 8 8 6 6 5 5 2 5 7 7 7 8 8 8 9 8 9 10 9 9 8 6 5 5 8 7 5 6 6 6 7 7 6 5 6 5 7 6 7 7 8 6 6 4 5 7 6 4 6 5 4 4 5 4
11 11 11 12 12 10 9 9 9 8 8 8 8 8 9 9 8 9 9 8 9 9 9 9 9 9 9 8 9 8 7 6 9 6 6 6 6 5 7 8 7 6 6 4 2 2 5 7 7 7 7 7 6 3 4 2 4 4 3 3 3 5
13 12 11 12 13 10 10 10 11 10 9 9 10 8 8 9 8 8 8 9 9 10 10 10 9 9 10 10 9 10 9 7 8 7 7 6 6 7 7 7 6 6 6 6 6 5 10 7 6 7 7 7 7 6 7 5 5 5 3 4 4 4
12 12 12 12 13 12 11 11 11 11 10 9 10 9 9 8 8 8 8 8 8 7 10 10 9 10 10 10 10 9 8 9 10 10 8 7 7 7 7 6 7 7 6 6 7 8 6 4 6 7 7 7 8 8 7 6 5 5 2 6 3 5
13 13 12 14 13 13 11 11 11 11 11 10 10 9 9 8 9 9 9 8 8 7 4 7 10 11 11 12 11 11 12 12 11 10 8 8 6 7 8 7 7 7 7 6 6 6 5 4 5 5 7 7 7 6 5 5 4 4 5 5 7 8
14 12 13 14 13 14 12 12 11 12 13 11 10 9 9 10 10 9 10 10 10 8 7 8 8 11 12 12 12 11 11 12 12 11 9 8 8 11 9 8 7 7 6 6 4 4 5 5 8 8 3 5 6 4 5 5 5 5 5 6 6 4
15 12 13 14 15 14 13 12 12 13 14 14 13 12 11 11 10 9 9 10 9 9 9 7 6 8 11 11 11 11 11 11 10 9 9 9 10 9 7 7 6 7 7 7 6 6 6 6 9 7 7 5 6 4 4 6 6 6 5 4 5 4
15 13 13 14 14 14 13 13 13 14 15 14 13 11 13 13 12 13 11 10 9 7 8 8 5 5 8 9 9 10 10 10 9 9 10 9 8 7 7 6 5 3 5 8 6 6 5 10 10 7 7 7 4 2 5 6 7 5 5 5 5 5
16 14 13 13 14 15 14 13 13 13 14 12 13 13 11 10 11 11 10 10 11 10 9 7 8 9 8 9 9 10 10 9 8 9 9 9 8 8 8 7 5 7 8 8 7 8 8 10 9 7 6 6 5 4 5 6 7 3 5 3 5 5
15 14 12 14 14 15 15 14 14 13 12 11 11 11 9 9 9 9 10 11 11 11 11 12 12 11 10 11 10 10 11 10 9 9 8 8 8 8 7 7 8 10 9 7 8 9 9 8 7 7 5 4 4 4 4 9 6 4 5 5 7 6
14 14 14 14 13 15 13 14 14 13 12 11 11 10 9 9 10 10 9 10 11 10 9 10 11 10 11 11 12 11 12 12 12 7 6 6 8 7 7 7 7 7 6 7 8 7 8 9 8 9 8 5 4 4 7 8 3 6 6 6 6 4
12 14 14 15 14 15 14 13 14 13 13 12 10 10 10 10 10 9 10 9 9 9 9 8 8 9 9 9 11 11 11 12 12 11 9 9 10 8 8 7 7 6 8 6 8 10 9 10 9 9 7 6 5 5 1 6 5 5 6 5 5 4
13 13 15 14 15 15 14 13 13 12 12 12 12 13 12 12 12 11 10 9 9 9 9 8 7 8 9 10 10 11 11 11 11 12 14 14 12 9 10 9 8 9 8 8 9 10 8 8 8 8 6 6 5 2 3 8 6 6 6 5 6 5
Wind_Direction
184 186 187 186 186 180 183 184 186 190 188 186 184 184 179 176 176 172 164 142 129 141 164 183 185 178 164 175 178 180 174 164 165 161 147 155 162 147 140 136 141 134 142 136 161 169 143 168 177 260 294 259 259 249 85 96 122 97 70 118 169 91
185 190 189 188 190 180 181 189 185 190 196 196 195 190 185 187 180 171 159 147 135 176 187 181 164 173 162 178 184 188 176 177 172 167 157 157 160 157 147 142 146 156 146 175 213 217 173 165 177 220 232 245 246 180 97 70 47 87 101 104 108 111
189 192 190 196 191 184 179 171 182 205 190 215 223 211 202 198 179 168 164 143 149 181 174 159 171 170 180 175 178 177 183 196 182 175 169 164 172 172 163 161 156 164 173 206 226 217 204 176 165 179 220 229 240 28 67 63 97 107 95 66 95 125
188 187 193 196 196 188 161 188 157 169 231 208 209 228 236 198 183 174 134 166 165 153 161 185 170 166 162 174 173 190 188 193 193 179 179 182 171 177 171 168 163 166 209 219 217 207 216 187 178 189 206 249 293 131 219 119 88 95 94 122 97 134
188 187 191 192 196 194 166 190 171 188 204 209 214 211 229 195 192 155 126 177 159 158 156 169 170 165 177 176 179 180 180 195 187 183 182 203 190 171 192 197 185 202 213 208 215 215 240 183 214 211 206 242 230 180 217 160 86 32 102 105 109 143
188 188 193 197 199 189 186 176 191 197 199 224 212 227 197 193 186 125 199 162 161 167 157 167 169 174 173 179 178 183 181 194 178 180 189 198 190 187 195 200 196 193 204 206 208 226 208 239 218 202 231 225 255 212 198 182 146 107 93 116 126 150
187 185 192 200 200 193 192 188 190 184 178 194 200 223 208 183 191 134 191 158 161 167 165 165 171 180 179 176 183 183 189 176 194 176 172 201 179 184 201 186 198 205 206 217 210 204 203 212 245 235 190 206 208 225 204 221 150 147 94 109 129 155
189 188 187 195 197 202 193 195 192 175 198 181 207 207 211 204 136 176 164 150 180 176 172 174 177 181 177 174 187 179 190 174 200 168 177 188 182 185 189 191 195 200 204 211 203 207 219 193 210 234 235 206 212 224 241 174 176 134 119 117 133 158
196 189 187 190 192 197 194 194 191 186 198 167 200 235 216 101 63 205 156 165 195 180 181 184 183 184 172 177 181 175 188 180 203 167 166 188 181 170 182 187 189 204 199 210 213 212 214 226 189 219 222 225 231 224 203 211 210 190 162 180 152 148
199 195 189 189 195 192 190 192 194 197 196 184 192 208 182 159 189 169 180 188 198 196 186 194 185 186 181 171 178 176 183 186 187 165 186 171 176 178 177 183 187 203 193 206 222 200 220 216 215 215 225 237 211 246 196 224 240 217 142 144 121 137
199 198 188 191 192 192 189 195 192 203 194 193 194 186 186 165 167 162 235 196 214 249 251 198 192 188 180 174 177 181 186 180 185 179 187 172 170 172 175 176 192 192 206 208 204 202 210 225 234 226 211 218 215 222 229 224 223 240 203 170 167 149
197 196 194 190 190 192 190 192 197 199 204 201 189 189 185 179 173 155 226 213 221 201 220 204 199 187 181 175 175 184 188 185 187 180 191 174 168 169 171 177 181 190 225 240 217 219 212 232 244 236 219 221 215 205 208 185 232 158 292 177 167 178
196 192 198 197 194 192 189 192 193 200 202 198 193 194 186 180 173 166 171 203 233 227 220 190 194 192 176 184 176 183 191 193 190 181 175 188 158 160 172 166 182 201 195 205 223 214 228 208 220 238 251 182 189 195 191 223 121 180 237 171 222 218
196 195 196 197 197 196 190 191 192 195 198 195 198 199 182 178 174 155 160 192 200 222 216 186 187 193 193 185 178 193 191 196 199 176 174 177 176 174 175 182 182 192 193 209 204 210 212 218 200 205 202 137 219 90 215 227 208 123 210 236 200 222
192 195 194 195 197 200 192 195 191 191 194 199 195 200 184 175 179 172 168 163 211 211 202 187 190 196 201 186 183 198 193 201 194 181 176 182 179 173 176 182 190 194 185 208 212 197 205 214 195 215 131 188 155 190 239 278 51 275 174 183 223 217
190 194 191 195 197 201 201 193 195 189 188 193 198 194 184 182 183 173 167 174 186 175 214 192 202 196 197 197 195 196 189 200 190 191 184 175 191 182 180 191 188 213 197 201 205 195 205 200 214 143 201 206 137 239 256 287 291 261 258 245 203 192
190 193 191 189 193 199 205 203 197 191 187 187 199 199 190 187 184 181 172 181 170 185 186 203 200 195 190 198 202 195 192 193 190 189 187 187 201 194 189 181 189 200 207 216 201 194 200 201 187 186 202 209 202 240 250 263 250 269 249 221 235 199
188 193 191 186 191 195 203 204 201 190 185 188 196 200 193 192 189 184 174 179 178 195 185 196 197 191 193 195 208 186 212 208 194 185 191 199 202 196 192 189 189 193 204 208 219 200 205 201 205 193 198 206 212 235 244 246 256 265 252 246 192 246
187 188 188 186 189 196 198 204 198 194 186 195 189 203 192 196 192 188 184 182 186 195 196 195 195 192 192 194 199 192 223 212 192 188 193 203 200 199 188 189 196 189 207 211 223 223 215 225 215 220 218 209 213 215 249 253 263 247 267 294 303 257
187 184 183 184 186 191 199 204 193 187 194 195 200 184 217 203 194 191 188 186 188 196 193 196 193 189 183 206 211 206 191 208 200 187 199 200 196 196 193 185 191 196 192 213 225 221 205 215 216 216 221 219 223 225 238 251 250 265 268 252 239 230
184 181 182 184 185 187 194 201 199 196 194 191 200 191 191 195 194 193 195 184 185 192 197 195 191 190 195 202 223 218 193 209 200 196 211 194 199 196 190 191 187 193 195 197 216 207 205 220 213 210 213 225 221 228 237 240 245 243 248 233 230 228
181 178 185 185 184 188 198 201 196 199 201 193 193 195 197 189 193 193 192 188 191 189 194 195 194 196 197 200 208 212 209 229 222 218 201 193 190 202 199 193 195 194 206 206 212 210 202 212 210 226 205 207 241 242 236 240 233 225 226 214 218 248
181 181 182 180 182 192 195 205 211 207 202 199 199 203 191 199 194 196 189 187 191 195 195 195 195 197 198 205 204 201 208 210 190 219 205 198 190 195 201 209 196 201 199 202 216 196 206 213 227 219 235 249 225 218 186 229 205 189 194 192 172 196
180 182 181 184 188 189 191 195 207 214 206 207 198 193 168 207 197 199 198 195 192 197 200 200 197 198 198 202 202 197 203 224 207 216 207 199 198 201 195 211 215 206 215 203 203 199 206 215 231 230 224 224 216 242 199 195 180 165 168 172 172 179
176 181 183 179 184 182 179 193 203 204 205 196 200 170 159 204 198 203 207 198 202 201 204 204 202 203 194 199 195 192 190 214 224 221 194 205 209 207 204 208 212 209 208 218 203 211 199 213 220 237 269 234 209 214 233 129 195 162 166 191 166 176
176 179 181 180 181 177 175 182 186 197 198 202 199 193 198 202 193 196 204 202 202 202 203 207 204 205 198 194 193 188 184 197 239 202 200 205 210 201 207 210 205 208 206 210 220 66 272 214 223 230 241 259 305 346 318 130 237 167 219 205 163 179
179 180 183 178 177 175 176 183 186 192 204 212 217 214 204 204 202 200 198 199 205 204 201 199 211 204 210 203 195 189 184 190 230 214 203 208 207 204 202 203 198 202 202 205 200 191 221 223 216 227 232 242 253 239 232 249 231 158 193 298 212 187
182 181 179 176 178 179 177 181 182 190 199 211 216 214 200 200 200 198 197 192 202 205 210 200 200 211 208 203 200 182 182 194 204 218 207 210 209 205 208 193 192 200 202 213 215 222 235 260 243 219 215 232 235 237 245 246 272 276 247 185 214 266
183 182 178 177 180 181 182 179 182 190 196 206 212 209 203 201 197 194 202 194 201 208 224 226 202 206 204 203 198 194 193 193 205 205 205 201 213 220 208 192 182 191 202 211 223 226 227 234 269 282 219 219 230 233 225 235 246 252 254 254 197 183
184 184 179 177 182 182 181 182 186 192 196 200 204 206 204 204 207 195 194 190 197 199 204 216 212 203 205 203 198 196 197 194 193 198 199 200 197 217 205 194 193 192 193 209 214 237 223 214 236 248 257 235 220 227 244 227 233 235 254 268 288 186
184 184 181 180 183 182 184 185 191 193 198 200 201 205 203 204 202 194 198 202 197 196 201 209 213 223 210 206 201 199 200 197 193 194 197 199 210 204 194 200 188 177 189 196 200 209 233 238 237 234 234 235 252 248 280 263 219 215 230 233 244 263
184 185 181 182 181 182 187 189 194 196 200 201 199 203 206 206 204 201 197 200 197 190 200 199 201 239 213 213 209 207 204 201 195 195 200 200 199 195 193 187 173 141 215 211 187 202 210 230 226 227 223 233 226 204 215 250 269 205 211 218 228 235
185 186 180 178 183 182 187 192 197 199 201 202 204 205 207 213 207 206 198 196 195 191 192 191 199 204 199 210 210 212 206 200 195 199 199 198 196 194 189 181 137 196 215 210 206 201 216 221 223 222 219 210 215 210 233 239 247 214 201 239 237 227
186 181 175 182 181 183 190 194 200 200 201 202 207 207 210 215 213 211 203 196 199 197 193 197 197 199 195 198 200 207 206 204 199 197 201 203 200 191 188 180 172 189 194 200 202 205 218 223 221 225 214 209 220 224 249 242 227 205 195 207 223 232
185 180 177 179 181 184 189 197 201 202 201 202 203 203 206 208 211 212 206 202 205 202 199 196 197 191 196 189 193 202 201 201 200 179 206 211 209 191 184 175 193 198 188 193 200 207 214 215 218 220 216 212 225 218 233 240 203 207 218 210 227 218
189 181 178 179 180 185 192 199 202 202 204 204 204 201 204 205 207 208 206 208 207 208 204 199 196 190 192 200 197 198 200 200 195 180 194 212 207 185 176 184 183 187 196 197 202 206 212 213 218 213 212 202 222 234 318 275 215 212 222 202 213 204
191 180 180 182 183 187 193 199 203 205 204 205 205 205 203 201 202 201 202 203 206 206 205 198 192 190 189 197 199 197 199 196 192 187 189 196 189 177 175 181 186 189 191 198 205 207 209 214 207 204 201 197 214 234 201 225 222 206 215 204 207 199